Location: Kosice
(48.7170°N, 21.2500°E)
Time: 21:31:22
(UTC+01:00)

ISS - Visible Passes

Search period start: 09 December 2018 00:00
Search period end: 19 December 2018 00:00
Orbit: 401 x 408 km, 51.6° (Epoch: 10 December)

Date Brightness Start Highest point End Pass type
(mag) Time Alt. Az. Time Alt. Az. Time Alt. Az.
09 Dec -3.9 16:47:11 10° WNW 16:50:27 78° NNE 16:53:11 14° ESE visible
09 Dec -1.4 18:23:57 10° W 18:25:53 22° WSW 18:25:53 22° WSW visible
10 Dec -2.6 17:31:32 10° WNW 17:34:38 40° SSW 17:36:18 22° SSE visible
11 Dec -3.4 16:39:15 10° WNW 16:42:29 64° SSW 16:45:43 10° SE visible
11 Dec -0.8 18:16:51 10° WSW 18:18:27 13° SW 18:19:41 11° SSW visible
12 Dec -1.3 17:23:54 10° W 17:26:26 21° SW 17:29:00 10° SSE visible
13 Dec -2.0 16:31:22 10° W 16:34:21 34° SW 16:37:20 10° SSE visible
14 Dec -0.3 17:17:16 10° WSW 17:18:05 11° SW 17:18:54 10° SSW visible
15 Dec -0.7 16:23:45 10° W 16:26:04 18° SW 16:28:22 10° S visible
